Regional Weather Roundup
Issued by NWS

Home | Current Version | Previous Version | Text Only | Print | Product List | Glossary Off
Versions: 1 2 3 4 5 6 7 8 9 10 11 12 13 14 15 16 17 18 19 20 21 22 23 24 25 26 27 28 29 30 31 32 33 34 35 36 37 38 39 40 41 42 43 44 45 46 47 48 49 50

000
ASUS45 KBOU 301907
RWRCO

WEATHER ROUNDUP FOR COLORADO
NATIONAL WEATHER SERVICE DENVER/BOULDER CO
100 PM MDT SAT MAY 30 2015

NOTE: "FAIR" INDICATES FEW OR NO CLOUDS BELOW 12000 FEET WITH NO
SIGNIFICANT WEATHER AND/OR OBSTRUCTIONS TO VISIBILITY.

COZ001>005-013-030-031-302000-
...NORTHWEST COLORADO...

CITY           SKY/WX    TMP DP  RH WIND       PRES   REMARKS
CRAIG          SUNNY     70  39  32 SW10      30.27F
HAYDEN         SUNNY     66  34  30 W9        30.28F
MEEKER         SUNNY     71  33  24 CALM      30.27F
MOUNT WERNER   NOT AVBL
STEAMBOAT SPGS SUNNY     63  36  36 W7        30.31F
WALDEN         MOSUNNY   61  30  31 S12       30.35F
$$

COZ006>008-011-302000-
...WEST CENTRAL VALLEYS...

CITY           SKY/WX    TMP DP  RH WIND       PRES   REMARKS
GRAND JUNCTION SUNNY     75  34  22 VRB3      30.19F
MONTROSE       SUNNY     74  29  19 CALM      30.27F
EAGLE          MOSUNNY   73  41  31 CALM      30.30F
RIFLE          SUNNY     73  37  27 N3        30.24F
DELTA          SUNNY     78  33  19 NE3       30.23F
NUCLA          SUNNY     75  28  17 NW8       30.31S
$$

COZ017>023-064>068-302000-
...SOUTHWEST COLORADO...

CITY           SKY/WX    TMP DP  RH WIND       PRES   REMARKS
DURANGO        SUNNY     70  33  25 SE7       30.30F
CORTEZ         SUNNY     77  32  19 S12       30.26F
PAGOSA SPRINGS SUNNY     66  26  22 CALM      30.36S
TELLURIDE      SUNNY     62  23  22 W14       30.45S
WOLF CREEK PAS NOT AVBL
$$

COZ009-010-012-014-032>034-037-058>063-302000-
...CENTRAL COLORADO...

CITY           SKY/WX    TMP DP  RH WIND       PRES   REMARKS
ASPEN          SUNNY     66  29  24 N10G18    30.33F
BUENA VISTA    SUNNY     65  28  24 SE3       30.33F
COPPER MTN     MOSUNNY   46  19  34 W15G21    30.56S
BERTHOUD PASS  FAIR      36  30  80 NW17G26   30.59S
COTTONWOOD PAS MOSUNNY   63  27  25 S5        30.44S
GUNNISON       SUNNY     64  32  29 SW12G17   30.37F
KREMMLING      SUNNY     64  32  29 NE6       30.33F
LEADVILLE      PTSUNNY   56  21  25 NW12G18   30.42F
MONARCH PASS   SUNNY     43  21  42 W16G24    30.67S
SALIDA         SUNNY     72  32  23 E3        30.37F
SUNLIGHT       SUNNY     52  30  43 CALM      30.55S
WILKERSON PASS SUNNY     54  27  35 W6        30.55S
$$

COZ069>075-302000-
...SAN LUIS VALLEY/SANGRE DE CRISTO MOUNTAINS...

CITY           SKY/WX    TMP DP  RH WIND       PRES   REMARKS
ALAMOSA        SUNNY     65  32  29 VRB7      30.34F
LA VETA PASS   MOSUNNY  N/A N/A N/A MISG      30.48S
SAGUACHE       SUNNY     63  36  36 S8        30.36F
$$

COZ035-036-038>040-302000-
...NORTHERN COLORADO FRONT RANGE...

CITY           SKY/WX    TMP DP  RH WIND       PRES   REMARKS
DENVER INTL AP MOSUNNY   68  47  46 E12G17    30.25F
DMNS CITY PARK   N/A     70  45  41 NE9       30.24F
AURORA         MOSUNNY   68  44  42 E6        30.25F
FRONT RANGE AP NOT AVBL
ERIE MUNI ARPT SUNNY     67  47  48 S3        30.24F
BOULDER MUN AP SUNNY     66  48  52 E7        30.24F
CENTENNIAL     MOSUNNY   66  39  37 VRB5      30.26F
BROOMFIELD     MOSUNNY   64  46  52 CALM      30.28S
FORT COLLINS   SUNNY     66  48  52 S8        30.26F
LONGMONT       SUNNY     69  47  45 CALM      30.26F
$$

COZ041-046-047-076>085-087-088-302000-
...PIKES PEAK/PALMER DIVIDE AND SOUTHERN FOOTHILLS...

CITY           SKY/WX    TMP DP  RH WIND       PRES   REMARKS
COLO. SPRINGS  PTSUNNY   61  47  59 SE9       30.32F
A. F. ACADEMY  MOSUNNY   60  46  58 S7        30.31F
ELLICOTT       MOSUNNY  N/A N/A N/A S10       30.30F
FALCON         MOSUNNY   61  45  56 S7        30.34F
FORT CARSON    MOSUNNY   62  50  64 S10       30.30F
LIMON          PTSUNNY   63  49  60 S10       30.28F
MONUMENT HILL  SUNNY     61  36  39 NW3       30.33S
TRINIDAD       SUNNY     65  52  62 E10       30.28F
$$

COZ042>045-048>051-090-091-302000-
...NORTHEAST COLORADO...

CITY           SKY/WX    TMP DP  RH WIND       PRES   REMARKS
GREELEY ARPT   SUNNY     66  50  55 S8        30.25F
AKRON          MOSUNNY   58  48  69 VRB7      30.29F
BURLINGTON     PTSUNNY   56  46  69 VRB6      30.30F
WRAY           MOSUNNY   62  46  55 CALM      30.29F
STERLING       MOSUNNY   59  46  63 S3        30.26F
HOLYOKE        SUNNY     61  43  51 CALM      30.29F
FORT MORGAN    MOSUNNY   62  46  56 SE7       30.28F
$$

COZ086-089-092>099-302000-
...SOUTHEAST COLORADO...

CITY           SKY/WX    TMP DP  RH WIND       PRES   REMARKS
PUEBLO         PTSUNNY   64  52  64 E10       30.26F
LA JUNTA       MOSUNNY   64  48  56 VRB6      30.27F
LAMAR          SUNNY     65  48  54 MISG      30.26F
SPRINGFIELD      N/A     63  47  55 VRB3      30.28F
$$



USA.gov is the U.S. government's official web portal to all federal, state and local government web resources and services.